Flag for Saudi Arabia Weather past 2 weeks in Turaif, Saudi Arabia

Now
70 °F

Sunny.


Feels Like: 70 °F
Forecast: 54 / 72 °F
Wind: 12 mph from South

Location: Turaif

Current Time: Feb 27, 2015 at 4:44:08 PM

Latest Report: Feb 27, 2015 at 4:00 PM


Visibility: 10 mi

Pressure: 30.07 "Hg

Humidity: 27%

Dew point: 34 °F

Location of TuraifLocation

Historic Weather in Turaif — Graph

°F

Turaif temperature yesterday

Maximum temperature yesterday: 64 °F (at 2:00 PM)
Minimum temperature yesterday: 41 °F (at 7:00 AM)
Average temperature yesterday: 53 °F

Past Weeks' High & Low Weather Summary

 TemperatureHumidityPressure
High68 °F (Feb 27, 3:00 PM)100% (Feb 16, 2:00 AM)30.24 "Hg (Feb 16, 2:00 AM)
Low30 °F (Feb 13, 7:00 AM)25% (Feb 24, 4:00 PM)29.56 "Hg (Feb 20, 2:00 PM)
Average46 °F69%30.00 "Hg
* Reported Feb 12 3:00 PM — Feb 27 3:00 PM, Turaif, Weather by CustomWeather, © 2015

Note: Actual official high and low records may vary slightly from our data, if they occured in-between our weather recording intervals... More about our weather records

Advertising

Turaif weather history for previous 24 hours

 ConditionsComfort  
Time TempWeatherWind HumidityBarometerVisibility
3:00 PM
Fri, Feb 27
68 °FSunny.7 mph26%30.09 "Hg10 mi
2:00 PM66 °FBroken clouds.16 mph26%30.12 "HgN/A
1:00 PM64 °FBroken clouds.12 mph30%30.15 "HgN/A
12:00 PM63 °FPassing clouds.16 mph37%30.18 "HgN/A
11:00 AM59 °FPassing clouds.12 mph48%30.18 "HgN/A
10:00 AM54 °FPassing clouds.16 mph58%30.18 "HgN/A
9:00 AM48 °FSunny.14 mph76%30.18 "Hg10 mi
8:00 AM41 °FSunny.7 mph93%30.21 "Hg10 mi
7:00 AM41 °FClear.6 mph87%30.18 "Hg10 mi
6:00 AM41 °FClear.6 mph87%30.15 "Hg10 mi
5:00 AM43 °FClear.7 mph81%30.15 "Hg10 mi
4:00 AM43 °FClear.8 mph81%30.15 "Hg10 mi
3:00 AM46 °FClear.8 mph76%30.15 "Hg10 mi
2:00 AM46 °FClear.6 mph76%30.21 "Hg10 mi
1:00 AM46 °FClear.8 mph76%30.21 "Hg10 mi
12:00 AM48 °FClear.6 mph71%30.21 "Hg10 mi
11:00 PM
Thu, Feb 26
48 °FClear.6 mph76%30.21 "Hg10 mi
10:00 PM50 °FClear.7 mph71%30.21 "Hg10 mi
9:00 PM52 °FClear.6 mph67%30.18 "Hg10 mi
8:00 PM55 °FClear.8 mph55%30.18 "Hg10 mi
7:00 PM59 °FSunny.8 mph45%30.18 "Hg10 mi
6:00 PM63 °FSunny.9 mph34%30.18 "Hg10 mi
5:00 PM64 °FSunny.6 mph32%30.18 "Hg10 mi
4:00 PM64 °FSunny.5 mph34%30.18 "Hg10 mi
Weather by CustomWeather, © 2015

See weather overviewHow to use our weather pages